TimeEDT,TemperatureF,Dew PointF,Humidity,Sea Level PressureIn,VisibilityMPH,Wind Direction,Wind SpeedMPH,Gust SpeedMPH,PrecipitationIn,Events,Conditions,WindDirDegrees,DateUTC
12:56 AM,70.0,62.1,76,29.82,10.0,SSE,11.5,-,N/A,,Mostly Cloudy,160,2013-05-22 04:56:00
1:56 AM,70.0,61.0,73,29.81,10.0,South,10.4,-,N/A,,Mostly Cloudy,180,2013-05-22 05:56:00
2:56 AM,70.0,62.1,76,29.80,10.0,South,9.2,-,N/A,,Clear,170,2013-05-22 06:56:00
3:56 AM,69.1,61.0,75,29.81,10.0,SW,8.1,-,N/A,,Overcast,220,2013-05-22 07:56:00
4:56 AM,68.0,61.0,78,29.80,10.0,South,8.1,-,N/A,,Overcast,180,2013-05-22 08:56:00
5:56 AM,66.0,61.0,84,29.80,10.0,SSE,8.1,-,N/A,,Mostly Cloudy,150,2013-05-22 09:56:00
6:56 AM,66.9,61.0,81,29.80,10.0,South,9.2,-,N/A,,Scattered Clouds,170,2013-05-22 10:56:00
7:53 AM,68.0,60.8,78,29.85,10.0,SSW,8.1,-,N/A,,Mostly Cloudy,210,2013-05-22 11:53:00
7:56 AM,68.0,61.0,78,29.84,10.0,SW,9.2,-,N/A,,Mostly Cloudy,220,2013-05-22 11:56:00
8:26 AM,69.8,60.8,73,29.84,10.0,SSW,8.1,-,N/A,,Mostly Cloudy,210,2013-05-22 12:26:00
8:56 AM,70.0,62.1,76,29.83,10.0,South,9.2,-,N/A,,Mostly Cloudy,190,2013-05-22 12:56:00
9:56 AM,71.1,62.1,73,29.83,10.0,South,9.2,-,N/A,,Mostly Cloudy,170,2013-05-22 13:56:00
10:56 AM,73.9,63.0,68,29.83,10.0,South,10.4,16.1,N/A,,Mostly Cloudy,180,2013-05-22 14:56:00
11:56 AM,77.0,61.0,58,29.83,10.0,SSW,15.0,21.9,N/A,,Mostly Cloudy,210,2013-05-22 15:56:00
12:56 PM,77.0,62.1,60,29.82,10.0,SSW,12.7,19.6,N/A,,Mostly Cloudy,200,2013-05-22 16:56:00
1:56 PM,78.1,62.1,58,29.81,10.0,South,12.7,19.6,N/A,,Overcast,190,2013-05-22 17:56:00
2:56 PM,77.0,63.0,62,29.81,10.0,South,13.8,18.4,N/A,,Mostly Cloudy,180,2013-05-22 18:56:00
3:56 PM,78.1,62.1,58,29.78,10.0,SW,15.0,23.0,N/A,,Overcast,220,2013-05-22 19:56:00
4:56 PM,73.9,64.0,71,29.77,10.0,West,10.4,-,0.00,,Mostly Cloudy,260,2013-05-22 20:56:00
5:53 PM,71.6,64.4,78,29.79,1.2,WSW,20.7,24.2,0.04,Rain,Heavy Rain,240,2013-05-22 21:53:00
5:56 PM,70.0,64.9,84,29.78,0.8,WSW,16.1,25.3,0.19,Rain,Heavy Rain,240,2013-05-22 21:56:00
5:59 PM,69.8,64.4,83,29.79,0.5,WSW,15.0,25.3,0.10,Fog-Rain-Thunderstorm,Heavy Thunderstorms and Rain,250,2013-05-22 21:59:00
6:02 PM,69.8,64.4,83,29.79,0.5,WSW,12.7,25.3,0.15,Fog-Rain-Thunderstorm,Heavy Thunderstorms and Rain,250,2013-05-22 22:02:00
6:06 PM,69.8,66.2,88,29.78,6.0,WSW,8.1,21.9,0.22,Rain-Thunderstorm,Light Thunderstorms and Rain,240,2013-05-22 22:06:00
6:12 PM,69.8,66.2,88,29.78,6.0,WSW,10.4,-,0.22,Rain-Thunderstorm,Light Thunderstorms and Rain,240,2013-05-22 22:12:00
6:21 PM,71.6,66.2,83,29.78,10.0,SW,8.1,-,0.22,,Overcast,230,2013-05-22 22:21:00
6:56 PM,72.0,66.9,84,29.77,10.0,SSW,5.8,-,0.22,,Mostly Cloudy,200,2013-05-22 22:56:00
7:56 PM,72.0,64.9,78,29.78,10.0,SSW,5.8,-,N/A,,Scattered Clouds,200,2013-05-22 23:56:00
8:56 PM,71.1,64.0,78,29.80,10.0,South,6.9,-,N/A,,Scattered Clouds,190,2013-05-23 00:56:00
9:56 PM,69.1,64.0,84,29.81,10.0,South,8.1,-,N/A,,Partly Cloudy,180,2013-05-23 01:56:00
10:56 PM,69.1,64.0,84,29.81,10.0,South,6.9,-,N/A,,Partly Cloudy,190,2013-05-23 02:56:00
11:56 PM,68.0,64.0,87,29.82,10.0,South,6.9,-,N/A,,Partly Cloudy,170,2013-05-23 03:56:00